Beckley, WV

5:38 PM EST on November 19, 2017 (GMT -0500)
Raleigh County Memorial

Weather History for KBKW - January, 2014

Change the Weather History Date:

Tuesday, January 7, 2014

  Actual Average Record
Temperature  
Mean Temperature -1 °F 31 °F  
Max Temperature 6 °F 39 °F 71 °F (1907)
Min Temperature -9 °F 23 °F -9 °F (2014)
Degree Days  
Heating Degree Days 66 34  
Month to date heating degree days 294 238  
Since 1 July heating degree days 2332 2331  
Cooling Degree Days 0 0  
Month to date cooling degree days 0 0  
Year to date cooling degree days 0 0  
Moisture  
Dew Point -12 °F    
Average Humidity 65    
Maximum Humidity 75    
Minimum Humidity 55    
Precipitation  
Precipitation T in 0.10 in 1.26 in (1991)
Month to date precipitation 0.44 0.65  
Year to date precipitation 0.44 0.65  
Snow  
Snow T in - - ()
Month to date snowfall 3.9  
Since 1 September snowfall 17.2  
Snow Depth 1.00 in    
Sea Level Pressure  
Sea Level Pressure 30.43 in    
Wind  
Wind Speed 10 mph (West)    
Max Wind Speed 22 mph    
Max Gust Speed 29 mph    
Visibility 9 miles    
Events Snow    
T = Trace of Precipitation, MM = Missing Value Source: NWS Daily Summary

Daily Weather History Graph

Daily Weather History Graph

Search for Another Location

Airport or City:

Trip Planner

Search our weather history database for the weather conditions in past years. The results will help you decide how hot, cold, wet, or windy it might be!

Date:

Astronomy

Jan. 07, 2014 Rise Set
Actual Time 7:40 AM EST 5:21 PM EST
Civil Twilight 7:11 AM EST 5:50 PM EST
Nautical Twilight 6:38 AM EST 6:23 PM EST
Astronomical Twilight 6:06 AM EST 6:55 PM EST
Moon 11:36 AM EST (1/7) No Moon Set
Length of Visible Light 10h 39m
Length of Day
9h 41m
Waxing Crescent, 45% of the Moon is Illuminated
Jan 7
Waxing Crescent
Jan 7
First Quarter
Jan 15
Full
Jan 24
Last Quarter
Jan 30
New

Hourly Weather History & Observations

Time (EST) Temp. Windchill Dew Point Humidity Pressure Visibility Wind Dir Wind Speed Gust Speed Precip Events Conditions
12:51 AM -6.0 °F -27.7 °F -16.1 °F 62% 30.31 in 8.0 mi WNW 16.1 mph 25.3 mph N/A   Overcast
1:51 AM -7.1 °F -28.4 °F -15.0 °F 68% 30.33 in 5.0 mi WNW 15.0 mph 24.2 mph N/A   Haze
2:51 AM -7.1 °F -30.4 °F -15.0 °F 68% 30.38 in 4.0 mi West 18.4 mph 25.3 mph N/A   Haze
3:51 AM -7.1 °F -26.8 °F -15.0 °F 68% 30.40 in 9.0 mi WNW 12.7 mph 26.5 mph 0.00 in   Overcast
4:51 AM -8.0 °F -28.0 °F -14.1 °F 75% 30.43 in 2.5 mi West 12.7 mph - 0.00 in Snow Light Snow
5:28 AM -7.6 °F -25.7 °F -14.8 °F 71% 30.16 in 4.0 mi West 10.4 mph - 0.00 in   Haze
5:51 AM -8.0 °F -27.1 °F -15.0 °F 71% 30.42 in 10.0 mi West 11.5 mph - 0.00 in   Mostly Cloudy
6:02 AM -7.6 °F -26.6 °F -16.6 °F 65% 30.15 in 10.0 mi West 11.5 mph - N/A   Scattered Clouds
6:51 AM -8.0 °F -27.1 °F -16.1 °F 68% 30.45 in 10.0 mi West 11.5 mph - N/A   Clear
7:34 AM -9.4 °F -20.9 °F -16.6 °F 71% 30.20 in 9.0 mi West 4.6 mph - N/A   Mostly Cloudy
7:51 AM -9.0 °F -25.2 °F -16.1 °F 71% 30.48 in 6.0 mi West 8.1 mph - N/A   Haze
7:58 AM -9.4 °F -28.9 °F -16.6 °F 71% 30.21 in 5.0 mi West 11.5 mph - N/A   Haze
8:24 AM -7.6 °F -27.5 °F -16.6 °F 65% 30.23 in 10.0 mi West 12.7 mph - N/A   Scattered Clouds
8:51 AM -7.1 °F -23.9 °F -15.0 °F 68% 30.53 in 10.0 mi West 9.2 mph - N/A   Partly Cloudy
9:51 AM -5.1 °F -27.2 °F -15.0 °F 62% 30.55 in 10.0 mi West 17.3 mph - N/A   Clear
10:51 AM -2.9 °F -21.6 °F -13.0 °F 62% 30.57 in 10.0 mi WSW 12.7 mph 20.7 mph N/A   Clear
11:51 AM -0.9 °F -15.3 °F -11.0 °F 62% 30.54 in 10.0 mi West 8.1 mph - N/A   Clear
12:51 PM 1.0 °F -14.0 °F -9.9 °F 60% 30.51 in 10.0 mi WSW 9.2 mph - N/A   Clear
1:51 PM 3.9 °F -10.4 °F -9.0 °F 55% 30.48 in 10.0 mi West 9.2 mph - N/A   Clear
2:51 PM 6.1 °F -7.8 °F -8.0 °F 53% 30.48 in 10.0 mi WNW 9.2 mph - N/A   Clear
3:51 PM 6.1 °F -7.8 °F -8.0 °F 53% 30.49 in 10.0 mi West 9.2 mph 16.1 mph N/A   Clear
4:51 PM 6.1 °F -8.7 °F -8.0 °F 53% 30.50 in 10.0 mi West 10.4 mph - N/A   Clear
5:51 PM 3.9 °F -5.3 °F -8.0 °F 58% 30.49 in 10.0 mi WSW 4.6 mph - N/A   Clear
6:51 PM 3.9 °F -6.9 °F -7.1 °F 60% 30.52 in 10.0 mi WSW 5.8 mph - N/A   Clear
7:51 PM 3.0 °F - -7.1 °F 63% 30.52 in 10.0 mi Calm Calm - N/A   Clear
8:51 PM 1.9 °F -5.6 °F -6.0 °F 69% 30.53 in 10.0 mi South 3.5 mph - N/A   Clear
9:51 PM 3.0 °F -8.0 °F -6.0 °F 66% 30.53 in 10.0 mi South 5.8 mph - N/A   Clear
10:51 PM 5.0 °F -6.9 °F -4.0 °F 66% 30.52 in 10.0 mi SSW 6.9 mph - N/A   Mostly Cloudy
11:51 PM 5.0 °F -2.1 °F -5.1 °F 63% 30.52 in 10.0 mi SSW 3.5 mph - N/A   Partly Cloudy